Weather History for Peterborough, ON

Change the Weather History Date:

Wednesday, April 17, 2013

  Actual Average Record
Temperature  
Mean Temperature 21 °F -  
Max Temperature 55 °F 58 °F 80 °F (2002)
Min Temperature -13 °F 37 °F -13 °F (2013)
Degree Days  
Heating Degree Days 44    
Moisture  
Dew Point 25 °F    
Average Humidity 66    
Maximum Humidity 93    
Minimum Humidity 38    
Precipitation  
Precipitation 0.00 in 0.09 in - ()
Sea Level Pressure  
Sea Level Pressure 30.27 in    
Wind  
Wind Speed 5 mph ()    
Max Wind Speed 20 mph    
Max Gust Speed -    
Visibility 9.0 miles    
Events      
Averages and records for this station are not official NWS values.
T = Trace of Precipitation, MM = Missing Value Source: Averaged Metar Reports

Daily Weather History Graph

Daily Weather History Graph

Search for Another Location

Airport:

Trip Planner

Search our weather history database for the weather conditions in past years. The results will help you decide how hot, cold, wet, or windy it might be!

Date:

Astronomy

Apr. 17, 2013 Rise Set
Actual Time 6:26 AM EDT 8:00 PM EDT
Civil Twilight 5:55 AM EDT 8:31 PM EDT
Nautical Twilight 5:18 AM EDT 9:07 PM EDT
Astronomical Twilight 4:39 AM EDT 9:47 PM EDT
Moon 11:33 AM EDT 1:41 AM EDT
Length of Visible Light 14h 35m
Length of Day
13h 34m
Waxing Crescent, 42% of the Moon is Illuminated
Apr 17
Waxing Crescent
Apr 18
First Quarter
Apr 25
Full
May 2
Last Quarter
May 9
New

Hourly Weather History & Observations

Time (EDT) Temp. Windchill Dew Point Humidity Pressure Visibility Wind Dir Wind Speed Gust Speed Precip Events Conditions
12:00 AM 35.6 °F 30.7 °F 30.2 °F 81% 30.25 in 9.0 mi West 5.8 mph - N/A   Clear
1:00 AM 33.8 °F 30.8 °F 32.0 °F 93% 30.26 in 9.0 mi SSE 3.5 mph - N/A   Clear
2:00 AM -10 °F - -14 °F 71% 29.97 in - NW 1.2 mph - -  
2:00 AM 35.6 °F 32.8 °F 30.2 °F 81% 30.28 in 9.0 mi SSW 3.5 mph - N/A   Clear
3:00 AM 35.6 °F 29.9 °F 30.2 °F 81% 30.27 in 9.0 mi WNW 6.9 mph - N/A   Clear
4:00 AM 30.2 °F - 28.4 °F 93% 30.29 in 9.0 mi Variable 2.3 mph - N/A   Clear
5:00 AM 33.8 °F 28.6 °F 28.4 °F 81% 30.30 in 9.0 mi WNW 5.8 mph - N/A   Clear
7:00 AM 32.0 °F 28.7 °F 30.2 °F 93% 30.36 in 9.0 mi West 3.5 mph - N/A   Clear
8:00 AM -7 °F - -13 °F 63% 29.98 in - NW 5.8 mph - -  
8:00 AM 35.6 °F 31.7 °F 32.0 °F 87% 30.38 in 9.0 mi North 4.6 mph - N/A   Clear
9:00 AM 41.0 °F 35.8 °F 32.0 °F 70% 30.39 in 9.0 mi NE 8.1 mph - N/A   Clear
10:00 AM 42.8 °F 38.6 °F 32.0 °F 66% 30.38 in 9.0 mi NE 6.9 mph - N/A   Clear
11:00 AM 46.4 °F 44.3 °F 30.2 °F 53% 30.36 in 9.0 mi NNE 4.6 mph - N/A   Clear
12:00 PM 48.2 °F - 30.2 °F 50% 30.37 in 9.0 mi NE 6.9 mph - N/A   Clear
1:00 PM 51.8 °F - 32.0 °F 47% 30.37 in 9.0 mi Variable 6.9 mph - N/A   Clear
2:00 PM 1 °F - -9 °F 48% 29.98 in - WNW 8.1 mph - -  
2:00 PM 51.8 °F - 26.6 °F 38% 30.36 in 9.0 mi NE 4.6 mph - N/A   Clear
3:00 PM 53.6 °F - 30.2 °F 41% 30.35 in 9.0 mi NNW 5.8 mph - N/A   Clear
4:00 PM 55.4 °F - 30.2 °F 38% 30.34 in 9.0 mi ENE 8.1 mph - N/A   Clear
5:00 PM 55.4 °F - 30.2 °F 38% 30.32 in 9.0 mi East 5.8 mph - N/A   Clear
6:00 PM 51.8 °F - 35.6 °F 54% 30.32 in 9.0 mi SSE 6.9 mph - N/A   Mostly Cloudy
7:00 PM 48.2 °F - 35.6 °F 62% 30.31 in 9.0 mi South 6.9 mph - N/A   Partly Cloudy
8:00 PM -0 °F - -8 °F 56% 29.98 in - WNW 19.6 mph - -  
8:00 PM 44.6 °F 40.7 °F 33.8 °F 66% 30.32 in 9.0 mi SSE 6.9 mph - N/A   Scattered Clouds
9:00 PM 41.0 °F - 32.0 °F 70% 30.32 in 9.0 mi Variable 2.3 mph - N/A   Partly Cloudy
10:00 PM 41.0 °F 39.0 °F 33.8 °F 76% 30.31 in 9.0 mi NE 3.5 mph - N/A   Overcast
11:00 PM 41.0 °F 38.0 °F 33.8 °F 76% 30.29 in 9.0 mi NE 4.6 mph - N/A   Mostly Cloudy